Location: Edisto_Beach
(32.4790°N, 80.3350°W)
Time: 07:04:00
(UTC-04:00)

Amateur Radio Satellites - All Passes

Search period start: 19 October 2017 06:34
Search period end: 20 October 2017 06:34
Location: Edisto_Beach, 32.4790°N, 80.3350°W

Satellite Date Start Highest point End Downlink Frequencies (MHz)
Time Altitude Azimuth
XW-2D 19 Oct 06:35:42 06:38:14 17° 95° (E) 06:40:46 145.860 - 145.880
NUDT-PHONESAT 19 Oct 06:42:53 06:44:44 13° 94° (E) 06:46:34 437.300
XW-2B 19 Oct 06:48:36 06:51:42 24° 97° (E) 06:54:48 145.730 - 145.750
SO-50 19 Oct 06:59:29 07:03:29 33° 112° (ESE) 07:07:30 436.795
JUGNU 19 Oct 07:10:57 07:14:50 18° 169° (S) 07:18:43 437.505
XW-2C 19 Oct 07:11:16 07:14:56 53° 100° (E) 07:18:35 145.795 - 145.815
O/OREOS (USA 219) 19 Oct 07:15:21 07:19:28 32° 66° (ENE) 07:23:33 437.305
DOVE 4 19 Oct 07:22:45 07:26:55 27° 289° (WNW) 07:31:15 437.250
CUTE 1.7 + AOD 2 19 Oct 07:28:10 07:30:38 15° 94° (E) 07:33:04 437.475
HO-68 19 Oct 07:36:47 07:42:53 29° 97° (E) 07:48:57 435.675
SEEDS 19 Oct 07:39:12 07:40:35 11° 93° (E) 07:41:58 437.485
STRAND 1 19 Oct 07:43:55 07:48:50 49° 73° (ENE) 07:53:47 437.568
PCSat 19 Oct 07:53:06 07:56:27 17° 104° (ESE) 07:59:48 145.827
CUTE-I 19 Oct 07:56:32 08:01:52 69° 285° (WNW) 08:07:12 437.470
XW-2F 19 Oct 07:57:47 08:01:10 33° 286° (WNW) 08:04:32 145.980 - 146.000
KAITUO 1B 19 Oct 07:58:27 08:01:57 43° 285° (WNW) 08:05:26 145.475/437.950
LilacSat-2 19 Oct 07:59:58 08:03:11 27° 287° (WNW) 08:06:24 437.200
AAUSAT CUBESAT 2 19 Oct 08:08:45 08:08:56 10° 92° (E) 08:09:07 437.432
XW-2D 19 Oct 08:09:24 08:12:18 22° 288° (WNW) 08:15:12 145.860 - 145.880
CUBEBUG 2 19 Oct 08:12:08 08:16:12 30° 96° (E) 08:20:08 437.445
NUDT-PHONESAT 19 Oct 08:15:29 08:18:34 26° 287° (WNW) 08:21:39 437.300
XW-2B 19 Oct 08:23:21 08:25:38 16° 290° (WNW) 08:27:54 145.730 - 145.750
ZACube-1 19 Oct 08:35:27 08:37:48 14° 93° (E) 08:40:08 437.345
XW-2A 19 Oct 08:37:59 08:41:02 33° 98° (E) 08:44:03 145.665 - 145.685
SO-50 19 Oct 08:40:35 08:43:57 21° 307° (NW) 08:47:21 436.795
UWE-3 19 Oct 08:53:01 08:57:22 50° 99° (E) 09:01:35 435.000/436.395/437.385
O/OREOS (USA 219) 19 Oct 08:55:25 08:58:34 18° 260° (W) 09:01:42 437.305
JUGNU 19 Oct 08:58:41 09:03:14 23° 179° (S) 09:07:45 437.505
RS-15 19 Oct 09:01:53 09:10:59 24° 38° (NE) 09:19:43 29.354- 29.394
FO-29 19 Oct 09:02:00 09:06:45 39° 71° (ENE) 09:11:45 435.910
CUTE 1.7 + AOD 2 19 Oct 09:02:44 09:06:29 32° 287° (WNW) 09:10:14 437.475
SEEDS 19 Oct 09:12:28 09:16:23 42° 286° (WNW) 09:20:19 437.485
Oscar 11 19 Oct 09:13:43 09:17:14 24° 96° (E) 09:20:43 .
YUBILEINY 19 Oct 09:17:40 09:24:53 30° 85° (E) 09:32:06 435.215
HO-68 19 Oct 09:23:55 09:30:38 44° 292° (WNW) 09:37:20 435.675
STRAND 1 19 Oct 09:25:22 09:28:12 15° 266° (W) 09:31:05 437.568
SRMSAT 19 Oct 09:31:49 09:35:14 16° 166° (SSE) 09:38:38 437.500
PCSat 19 Oct 09:34:06 09:39:21 50° 299° (WNW) 09:44:38 145.827
AAUSAT CUBESAT 2 19 Oct 09:40:36 09:44:33 46° 285° (WNW) 09:48:30 437.432
nSIGHT-1 19 Oct 09:44:08 09:46:40 21° 128° (SE) 09:49:11 .
AO-73 19 Oct 09:48:42 09:53:03 77° 282° (WNW) 09:57:15 145.935
DELFI C3 19 Oct 09:49:05 09:49:50 10° 93° (E) 09:50:36 145.870
CUBEBUG 2 19 Oct 09:49:12 09:52:32 20° 291° (WNW) 09:55:49 437.445
ZACube-1 19 Oct 10:10:12 10:14:11 36° 287° (WNW) 10:18:05 437.345
ISS 19 Oct 10:12:53 10:15:58 41° 132° (SE) 10:19:03 437.550
PRISM 19 Oct 10:17:46 10:20:53 22° 71° (ENE) 10:24:01 437.425
UNISAT 6 19 Oct 10:22:02 10:26:36 68° 76° (ENE) 10:31:15 437.425
UWE-3 19 Oct 10:31:38 10:33:16 12° 294° (WNW) 10:34:53 435.000/436.395/437.385
TIGRISAT 19 Oct 10:37:10 10:41:46 89° 257° (WSW) 10:46:29 435.000
JUGNU 19 Oct 10:47:31 10:51:37 20° 189° (S) 10:55:43 437.505
NO-84 19 Oct 10:47:54 10:49:11 11° 32° (NNE) 10:50:27 435.350 FM
FO-29 19 Oct 10:48:36 10:52:04 18° 267° (W) 10:55:39 435.910
Oscar 11 19 Oct 10:49:55 10:53:11 22° 289° (WNW) 10:56:27 .
EO-88 19 Oct 10:50:46 10:54:05 33° 98° (E) 10:57:21 145.990 - 145.960
Max Valier Satellite 19 Oct 10:57:17 11:00:55 63° 101° (E) 11:04:31 145.860
YUBILEINY 19 Oct 11:12:58 11:21:12 47° 281° (W) 11:29:32 435.215
RS-15 19 Oct 11:13:28 11:25:21 86° 63° (ENE) 11:36:32 29.354- 29.394
SRMSAT 19 Oct 11:19:12 11:23:45 23° 176° (S) 11:28:20 437.500
nSIGHT-1 19 Oct 11:20:09 11:22:50 24° 323° (NW) 11:25:31 .
DELFI C3 19 Oct 11:20:59 11:24:43 41° 285° (WNW) 11:28:27 145.870
EO-79 19 Oct 11:36:53 11:39:27 16° 68° (ENE) 11:42:01 145.935-145.965
POLYITAN 1 19 Oct 11:40:54 11:43:46 18° 69° (ENE) 11:46:39 437.675
LO-87 19 Oct 11:45:10 11:47:42 18° 95° (E) 11:50:13 145.935 - 145.965
ISS 19 Oct 11:50:28 11:52:34 16° 326° (NNW) 11:54:41 437.550
PRISM 19 Oct 11:52:56 11:56:01 21° 264° (W) 11:59:07 437.425
AIST 2D 19 Oct 11:58:23 12:01:53 87° 256° (WSW) 12:05:25 435.315
QB50P2 19 Oct 11:59:59 12:03:48 33° 73° (ENE) 12:07:40 145.880/145.840
BEESAT 3 19 Oct 12:03:01 12:06:06 22° 111° (ESE) 12:09:13 437.485
NANOSAT C BR1 19 Oct 12:04:41 12:08:23 30° 72° (ENE) 12:12:05 145.865
DUCHIFAT 1 19 Oct 12:15:57 12:19:48 35° 73° (ENE) 12:23:41 145.980
NO-84 19 Oct 12:23:28 12:27:03 73° 231° (SW) 12:30:18 435.350 FM
EO-88 19 Oct 12:26:17 12:27:21 11° 291° (WNW) 12:28:25 145.990 - 145.960
BUGSAT 1 19 Oct 12:31:09 12:32:41 12° 67° (ENE) 12:34:14 437.445
ESTCUBE 1 19 Oct 12:38:38 12:43:05 62° 101° (E) 12:47:30 437.505/2401.250
JUGNU 19 Oct 12:38:51 12:39:57 10° 198° (SSW) 12:41:03 437.505
SRMSAT 19 Oct 13:07:51 13:12:21 22° 186° (S) 13:16:51 437.500
EO-79 19 Oct 13:11:00 13:14:51 34° 262° (W) 13:18:46 145.935-145.965
POLYITAN 1 19 Oct 13:15:30 13:19:15 30° 262° (W) 13:23:03 437.675
LO-87 19 Oct 13:18:17 13:20:59 20° 288° (WNW) 13:23:39 145.935 - 145.965
BEESAT 2 19 Oct 13:19:53 13:23:42 49° 114° (ESE) 13:27:37 435.950
Oscar 19 19 Oct 13:23:55 13:28:16 28° 70° (ENE) 13:32:36 437.125/150
RS-15 19 Oct 13:28:54 13:36:04 19° 261° (W) 13:43:04 29.354- 29.394
M-CUBED/EXP-1 PRIME 19 Oct 13:33:08 13:36:11 29° 70° (ENE) 13:39:08 437.505
SPROUT 19 Oct 13:34:13 13:38:28 61° 101° (E) 13:42:42 437.525
QB50P2 19 Oct 13:37:04 13:39:37 15° 266° (W) 13:42:12 145.880/145.840
BEESAT 3 19 Oct 13:40:14 13:43:30 24° 305° (NW) 13:46:47 437.485
NANOSAT C BR1 19 Oct 13:41:14 13:44:03 17° 265° (W) 13:46:53 145.865
Gurwin Techsat 1B 19 Oct 13:45:38 13:50:16 32° 70° (ENE) 13:54:54 435.225
DX 1 19 Oct 13:46:58 13:47:44 10° 93° (E) 13:48:31 434.975-435.025
DUCHIFAT 1 19 Oct 13:53:10 13:55:31 14° 266° (W) 13:57:52 145.980
AO-85 19 Oct 14:01:46 14:05:38 79° 296° (WNW) 14:09:33 145.980
BUGSAT 1 19 Oct 14:03:35 14:07:34 44° 261° (W) 14:11:37 437.445
VELOX 1 19 Oct 14:09:53 14:14:19 76° 284° (WNW) 14:18:45 145.980
UKube-1 19 Oct 14:12:16 14:14:19 13° 94° (E) 14:16:23 .
50 SAT 19 Oct 14:17:20 14:20:17 29° 98° (E) 14:23:12 437.505
SRMSAT 19 Oct 14:57:54 15:00:53 14° 195° (SSW) 15:03:52 437.500
BEESAT 2 19 Oct 14:59:59 15:01:42 12° 310° (NW) 15:03:26 435.950
Oscar 19 19 Oct 15:03:05 15:07:27 27° 263° (W) 15:11:50 437.125/150
M-CUBED/EXP-1 PRIME 19 Oct 15:09:56 15:10:38 10° 260° (W) 15:11:19 437.505
AO-7 19 Oct 15:10:03 15:17:34 40° 65° (ENE) 15:25:05 .
DX 1 19 Oct 15:19:53 15:24:08 51° 286° (WNW) 15:28:22 434.975-435.025
Gurwin Techsat 1B 19 Oct 15:25:48 15:30:08 25° 264° (W) 15:34:28 435.225
ITAMSAT 1 19 Oct 15:33:09 15:37:35 29° 70° (ENE) 15:42:03 435.822/435.867
SO-50 19 Oct 15:37:10 15:38:08 11° 47° (NE) 15:39:07 436.795
UKube-1 19 Oct 15:46:24 15:50:27 40° 287° (WNW) 15:54:29 .
MOZHAYETS 4 19 Oct 16:08:14 16:12:31 39° 99° (E) 16:16:46
ITUPSAT 1 19 Oct 16:27:10 16:31:53 55° 101° (E) 16:36:32 437.325
BEESAT 19 Oct 16:43:21 16:48:09 87° 107° (ESE) 16:52:54 436.000
DOVE 4 19 Oct 16:48:05 16:50:10 14° 67° (ENE) 16:52:16 437.250
AO-7 19 Oct 17:02:36 17:10:11 39° 260° (W) 17:17:48 .
ITAMSAT 1 19 Oct 17:12:39 17:16:57 26° 263° (W) 17:21:16 435.822/435.867
SO-50 19 Oct 17:14:29 17:19:07 82° 244° (WSW) 17:23:49 436.795
CUTE-I 19 Oct 17:37:14 17:39:31 13° 64° (ENE) 17:41:49 437.470
KKS-1 19 Oct 17:43:15 17:46:48 23° 97° (E) 17:50:21 437.445
MOZHAYETS 4 19 Oct 17:46:35 17:49:18 16° 292° (WNW) 17:52:00
XW-2C 19 Oct 17:49:23 17:51:22 14° 70° (ENE) 17:53:21 145.795 - 145.815
nSIGHT-1 19 Oct 17:50:13 17:53:12 35° 40° (NE) 17:56:11 .
CUBESAT XI-V 19 Oct 17:53:28 17:58:01 64° 285° (WNW) 18:02:34 437.345
HO-68 19 Oct 18:03:40 18:06:53 14° 58° (ENE) 18:10:04 435.675
ITUPSAT 1 19 Oct 18:07:07 18:09:10 13° 295° (WNW) 18:11:12 437.325
STARS 19 Oct 18:18:54 18:22:21 22° 96° (E) 18:25:47 437.465
ISS 19 Oct 18:20:22 18:23:38 70° 44° (NE) 18:26:53 437.550
DOVE 4 19 Oct 18:23:39 18:27:28 36° 262° (W) 18:31:24 437.250
PCSat 19 Oct 18:26:27 18:31:41 48° 61° (ENE) 18:36:52 145.827
XW-2F 19 Oct 18:33:17 18:36:58 50° 75° (ENE) 18:40:37 145.980 - 146.000
KAITUO 1B 19 Oct 18:33:24 18:36:51 36° 75° (ENE) 18:40:18 145.475/437.950
LilacSat-2 19 Oct 18:36:16 18:40:05 66° 77° (ENE) 18:43:53 437.200
XW-2D 19 Oct 18:44:45 18:48:33 84° 78° (ENE) 18:52:22 145.860 - 145.880
NUDT-PHONESAT 19 Oct 18:48:57 18:52:37 59° 76° (ENE) 18:56:17 437.300
XW-2B 19 Oct 18:58:12 19:01:59 66° 260° (W) 19:05:46 145.730 - 145.750
CUBEBUG 2 19 Oct 19:06:19 19:09:07 16° 68° (ENE) 19:11:58 437.445
CUTE-I 19 Oct 19:13:40 19:18:56 66° 258° (WSW) 19:24:14 437.470
KKS-1 19 Oct 19:19:33 19:23:14 25° 290° (WNW) 19:26:55 437.445
XW-2C 19 Oct 19:21:52 19:25:14 30° 262° (W) 19:28:36 145.795 - 145.815
nSIGHT-1 19 Oct 19:27:26 19:29:13 14° 233° (SW) 19:31:00 .
UWE-3 19 Oct 19:45:19 19:49:02 24° 71° (ENE) 19:52:47 435.000/436.395/437.385
HO-68 19 Oct 19:46:22 19:53:32 87° 75° (ENE) 20:00:46 435.675
CUTE 1.7 + AOD 2 19 Oct 19:49:50 19:54:05 89° 267° (W) 19:58:19 437.475
STARS 19 Oct 19:54:54 19:58:34 26° 289° (WNW) 20:02:13 437.465
SEEDS 19 Oct 19:58:48 20:02:57 68° 77° (ENE) 20:07:05 437.485
STRAND 1 19 Oct 19:59:34 20:03:46 25° 96° (E) 20:07:56 437.568
Oscar 11 19 Oct 20:06:04 20:07:24 11° 67° (ENE) 20:08:43 .
KAITUO 1B 19 Oct 20:10:33 20:10:56 10° 267° (W) 20:11:18 145.475/437.950
PCSat 19 Oct 20:11:05 20:14:37 18° 255° (WSW) 20:18:08 145.827
AAUSAT CUBESAT 2 19 Oct 20:25:30 20:29:31 57° 76° (ENE) 20:33:32 437.432
XW-2A 19 Oct 20:36:21 20:39:43 59° 260° (W) 20:43:06 145.665 - 145.685
AO-73 19 Oct 20:38:48 20:43:08 45° 74° (ENE) 20:47:29 145.935
CUBEBUG 2 19 Oct 20:40:58 20:45:18 41° 262° (W) 20:49:46 437.445
ZACube-1 19 Oct 21:00:03 21:04:37 88° 260° (W) 21:09:14 437.345
UWE-3 19 Oct 21:21:28 21:25:18 26° 264° (W) 21:29:12 435.000/436.395/437.385
O/OREOS (USA 219) 19 Oct 21:22:22 21:26:54 89° 108° (ESE) 21:31:30 437.305
YUBILEINY 19 Oct 21:28:10 21:36:58 70° 83° (E) 21:45:45 435.215
Max Valier Satellite 19 Oct 21:32:46 21:34:49 14° 70° (ENE) 21:36:53 145.860
STRAND 1 19 Oct 21:38:23 21:42:52 31° 290° (WNW) 21:47:19 437.568
Oscar 11 19 Oct 21:38:49 21:43:02 50° 260° (W) 21:47:15 .
HO-68 19 Oct 21:39:08 21:41:55 12° 268° (W) 21:44:43 435.675
FO-29 19 Oct 21:58:05 22:05:07 64° 101° (ESE) 22:12:46 435.910
BEESAT 3 19 Oct 22:00:17 22:04:03 42° 59° (ENE) 22:07:43 437.485
DELFI C3 19 Oct 22:01:06 22:04:53 52° 75° (ENE) 22:08:40 145.870
AO-73 19 Oct 22:17:18 22:19:30 13° 267° (W) 22:21:43 145.935
UNISAT 6 19 Oct 22:19:18 22:22:42 20° 95° (E) 22:26:01 437.425
TIGRISAT 19 Oct 22:33:54 22:37:48 27° 96° (E) 22:41:36 435.000
AO-85 19 Oct 22:36:36 22:40:29 26° 56° (NE) 22:44:35 145.980
EO-88 19 Oct 22:56:38 23:00:11 51° 260° (W) 23:03:45 145.990 - 145.960
Max Valier Satellite 19 Oct 23:05:09 23:08:21 27° 263° (W) 23:11:35 145.860
BEESAT 2 19 Oct 23:18:57 23:22:58 81° 243° (WSW) 23:26:56 435.950
RS-15 19 Oct 23:22:22 23:29:49 19° 99° (E) 23:37:17 29.354- 29.394
YUBILEINY 19 Oct 23:27:01 23:32:48 20° 278° (W) 23:38:37 435.215
ESTCUBE 1 19 Oct 23:33:40 23:37:38 32° 72° (ENE) 23:41:37 437.505/2401.250
PRISM 19 Oct 23:37:16 23:41:23 70° 101° (E) 23:45:31 437.425
BEESAT 3 19 Oct 23:40:03 23:41:07 11° 253° (WSW) 23:42:11 437.485
FO-29 19 Oct 23:44:31 23:49:39 22° 294° (WNW) 23:55:06 435.910
LO-87 19 Oct 23:48:23 23:51:56 73° 78° (ENE) 23:55:32 145.935 - 145.965
UNISAT 6 19 Oct 23:55:24 23:59:21 29° 289° (WNW) 00:03:13 437.425
TIGRISAT 20 Oct 00:10:46 00:14:16 22° 290° (WNW) 00:17:42 435.000
AO-85 20 Oct 00:16:41 00:20:51 31° 248° (WSW) 00:25:15 145.980
SPROUT 20 Oct 00:23:11 00:26:41 25° 71° (ENE) 00:30:12 437.525
EO-79 20 Oct 00:59:40 01:03:50 51° 100° (E) 01:07:56 145.935-145.965
AIST 2D 20 Oct 01:00:49 01:03:59 34° 285° (WNW) 01:07:08 435.315
VELOX 1 20 Oct 01:02:15 01:06:29 51° 74° (ENE) 01:10:43 145.980
POLYITAN 1 20 Oct 01:04:11 01:08:24 59° 101° (E) 01:12:33 437.675
ESTCUBE 1 20 Oct 01:11:21 01:14:25 18° 265° (W) 01:17:31 437.505/2401.250
QB50P2 20 Oct 01:24:24 01:28:38 66° 283° (WNW) 01:32:49 145.880/145.840
NANOSAT C BR1 20 Oct 01:28:16 01:32:31 77° 282° (WNW) 01:36:42 145.865
RS-15 20 Oct 01:28:20 01:40:36 88° 116° (ESE) 01:53:00 29.354- 29.394
DUCHIFAT 1 20 Oct 01:39:24 01:43:36 64° 283° (WNW) 01:47:44 145.980
Oscar 19 20 Oct 01:41:22 01:43:52 14° 93° (E) 01:46:20 437.125/150
BUGSAT 1 20 Oct 01:49:48 01:53:39 34° 98° (E) 01:57:27 437.445
SPROUT 20 Oct 01:59:15 02:02:28 21° 264° (W) 02:05:43 437.525
Gurwin Techsat 1B 20 Oct 02:07:08 02:10:43 18° 94° (E) 02:14:15 435.225
DX 1 20 Oct 02:10:19 02:14:36 73° 77° (ENE) 02:18:55 434.975-435.025
50 SAT 20 Oct 02:12:56 02:16:09 70° 258° (WSW) 02:19:24 437.505
UKube-1 20 Oct 02:35:34 02:39:50 90° 77° (ENE) 02:44:09 .
EO-79 20 Oct 02:38:11 02:39:03 11° 294° (WNW) 02:39:56 145.935-145.965
VELOX 1 20 Oct 02:42:22 02:43:08 10° 267° (W) 02:43:54 145.980
M-CUBED/EXP-1 PRIME 20 Oct 02:48:22 02:51:55 51° 105° (ESE) 02:55:45 437.505
MOZHAYETS 4 20 Oct 03:05:54 03:09:31 23° 70° (ENE) 03:13:08
Oscar 19 20 Oct 03:18:26 03:23:25 54° 286° (WNW) 03:28:23 437.125/150
AO-7 20 Oct 03:18:58 03:23:15 15° 93° (E) 03:27:32 .
BUGSAT 1 20 Oct 03:26:13 03:28:38 15° 292° (WNW) 03:31:03 437.445
ITUPSAT 1 20 Oct 03:29:17 03:33:43 38° 72° (ENE) 03:38:09 437.325
NO-84 20 Oct 03:33:32 03:37:49 88° 304° (NW) 03:42:08 435.350 FM
BEESAT 20 Oct 03:44:51 03:49:32 59° 74° (ENE) 03:54:15 436.000
RS-15 20 Oct 03:44:54 03:54:46 27° 319° (NW) 04:04:39 29.354- 29.394
Gurwin Techsat 1B 20 Oct 03:45:45 03:50:47 44° 288° (WNW) 03:55:47 435.225
ITAMSAT 1 20 Oct 03:51:41 03:54:34 15° 94° (E) 03:57:28 435.822/435.867
KKS-1 20 Oct 04:38:26 04:40:18 13° 66° (ENE) 04:42:10 437.445
MOZHAYETS 4 20 Oct 04:42:33 04:46:29 27° 263° (W) 04:50:26
CUBESAT XI-V 20 Oct 04:51:40 04:56:17 71° 77° (ENE) 05:00:54 437.345
AO-7 20 Oct 05:08:23 05:16:44 87° 287° (WNW) 05:25:04 .
ITUPSAT 1 20 Oct 05:08:27 05:11:36 17° 265° (W) 05:14:46 437.325
STARS 20 Oct 05:12:54 05:14:22 12° 66° (ENE) 05:15:50 437.465
NO-84 20 Oct 05:13:40 05:15:45 13° 326° (NW) 05:17:49 435.350 FM
BEESAT 20 Oct 05:26:26 05:27:35 11° 267° (W) 05:28:45 436.000
ITAMSAT 1 20 Oct 05:29:11 05:34:15 52° 287° (WNW) 05:39:18 435.822/435.867
KKS-1 20 Oct 06:12:07 06:16:22 47° 260° (W) 06:20:40 437.445
RS-15 20 Oct 06:12:26 06:13:52 10° 354° (N) 06:15:17 29.354- 29.394
XW-2D 20 Oct 06:23:41 06:25:01 12° 93° (E) 06:26:21 145.860 - 145.880
